Regional Weather Roundup
Issued by NWS

Home | Current Version | Previous Version | Text Only | Print | Product List | Glossary Off
Versions: 1 2 3 4 5 6 7 8 9 10 11 12 13 14 15 16 17 18 19 20 21 22 23 24 25 26 27 28 29 30 31 32 33 34 35 36 37 38 39 40 41 42 43 44 45 46 47 48 49 50

000
ASUS43 KBIS 280931
RWRND
NORTH DAKOTA REGIONAL WEATHER ROUNDUP
NATIONAL WEATHER SERVICE EASTERN NORTH DAKOTA/GRAND FORKS ND
400 AM CDT WED JUN 28 2017

  NOTE: "FAIR" INDICATES FEW OR NO CLOUDS BELOW 12,000 FEET WITH NO
  SIGNIFICANT WEATHER AND/OR OBSTRUCTIONS TO VISIBILITY.

NDZ001>003-009>011-017-281000-
...NORTHWEST NORTH DAKOTA...

CITY           SKY/WX    TMP DP  RH WIND       PRES   REMARKS
WILLISTON      FAIR      64  42  44 N16G24    29.67F
MINOT          FAIR      64  57  78 NW17      29.56R
MINOT AFB      FAIR      62  57  83 NW16      29.55S
$$

NDZ018>021-031>035-040>046-281000-
...SOUTHWEST NORTH DAKOTA...

CITY           SKY/WX    TMP DP  RH WIND       PRES   REMARKS
BISMARCK       FAIR      63  61  93 NW6       29.56R
DICKINSON      CLOUDY    61  55  81 NW14      29.65R
GARRISON         N/A     62  57  83 N16       29.56S
HETTINGER      CLOUDY    64  55  72 NW14      29.69R
$$

NDZ004>008-012>016-024-026-027-054-281000-
...NORTHEAST NORTH DAKOTA...

CITY           SKY/WX    TMP DP  RH WIND       PRES   REMARKS
GRAND FORKS    FAIR      61  59  93 S15       29.49F
GRAND FORKS AF CLOUDY    60  59  96 S8        29.50F
DEVILS LAKE    RAIN      63  63 100 E6        29.56R FOG
$$

NDZ022-023-025-028>030-036>039-047>053-281000-
...SOUTHEAST NORTH DAKOTA...

CITY           SKY/WX    TMP DP  RH WIND       PRES   REMARKS
JAMESTOWN      FAIR      61  55  81 NE5       29.47F
FARGO          FAIR      66  60  81 SE15G25   29.48F
WAHPETON       PTSUNNY   63  55  77 E15G21    29.49F
$$



USA.gov is the U.S. government's official web portal to all federal, state and local government web resources and services.